DW8259 Weather Reports


time (UTC)temp
F
wind
direction
speed
knots
gust
knots
rain 1hr
in
rain 24hr
in
rain mn
in
humidity
%
barometer
mb
20260906145214 75 88 0.0 4.3 0.00 0.00 0.00 87 1018.5
20260906144503 75 93 0.0 2.6 0.00 0.00 0.00 88 1018.4
20260906144003 74 90 0.0 2.6 0.00 0.00 0.00 89 1018.4
20260906143503 74 77 0.0 3.5 0.00 0.00 0.00 89 1018.5
20260906143003 74 75 0.0 3.5 0.00 0.00 0.00 89 1018.4
20260906142503 74 78 0.0 1.7 0.00 0.00 0.00 89 1018.3
20260906142003 74 94 0.0 2.6 0.00 0.00 0.00 90 1018.3
20260906141503 74 94 0.0 2.6 0.00 0.00 0.00 90 1018.2
20260906141003 73 110 0.0 4.3 0.00 0.00 0.00 90 1018.1
20260906140503 73 120 0.0 4.3 0.00 0.00 0.00 90 1018.0
20260906140213 73 137 0.0 2.6 0.00 0.00 0.00 90 1018.1
20260906135503 73 116 0.0 2.6 0.00 0.00 0.00 91 1018.1
20260906135213 73 102 0.0 1.7 0.00 0.00 0.00 91 1018.0
20260906134503 73 113 0.0 1.7 0.00 0.00 0.00 91 1018.0
20260906134003 72 112 0.0 4.3 0.00 0.00 0.00 91 1018.0
20260906133503 72 110 0.0 4.3 0.00 0.00 0.00 92 1018.1
20260906133003 72 94 0.9 5.2 0.00 0.00 0.00 92 1018.0
20260906132504 72 92 0.9 6.1 0.00 0.00 0.00 92 1018.0
20260906132003 71 95 0.0 6.1 0.00 0.00 0.00 92 1018.1
20260906131503 71 94 0.0 4.3 0.00 0.00 0.00 92 1018.1
20260906131003 71 91 0.0 4.3 0.00 0.00 0.00 92 1018.2
20260906130503 71 84 0.0 1.7 0.00 0.00 0.00 92 1018.1
20260906130003 71 85 0.0 4.3 0.00 0.00 0.00 93 1018.0
20260906125503 71 86 0.0 4.3 0.00 0.00 0.00 93 1018.1
20260906125003 71 88 0.0 2.6 0.00 0.00 0.00 93 1018.2
20260906124503 71 88 0.0 1.7 0.00 0.00 0.00 93 1018.2
20260906124004 71 88 0.0 1.7 0.00 0.00 0.00 93 1018.3
20260906123503 71 87 0.0 0.9 0.00 0.00 0.00 93 1018.1
20260906123003 71 87 0.0 0.9 0.00 0.00 0.00 93 1018.1
20260906122503 70 87 0.0 0.9 0.00 0.00 0.00 93 1018.0
20260906122003 70 87 0.0 0.9 0.00 0.00 0.00 93 1018.0
20260906121714 70 87 0.0 0.9 0.00 0.00 0.00 93 1017.9
20260906121003 70 0 0.0 0.0 0.00 0.00 0.00 93 1017.9
20260906120503 70 87 0.0 0.9 0.00 0.00 0.00 93 1017.9
20260906120003 70 87 0.0 0.9 0.00 0.00 0.00 93 1017.6
20260906115503 70 87 0.0 0.9 0.00 0.00 0.00 93 1017.4
20260906115213 70 87 0.0 0.9 0.00 0.00 0.00 93 1017.3
20260906114503 70 87 0.0 0.9 0.00 0.00 0.00 93 1017.3
20260906114003 70 0 0.0 0.0 0.00 0.00 0.00 93 1017.3
20260906113713 70 0 0.0 0.0 0.00 0.00 0.00 93 1017.3
20260906113003 70 87 0.0 0.9 0.00 0.00 0.00 93 1017.1
20260906112713 70 87 0.0 0.9 0.00 0.00 0.00 93 1017.1
20260906112003 70 87 0.0 0.9 0.00 0.00 0.00 93 1016.9
20260906111503 70 87 0.0 0.9 0.00 0.00 0.00 93 1016.8
20260906111003 70 88 0.0 2.6 0.00 0.00 0.00 93 1016.7
20260906110503 70 88 0.0 2.6 0.00 0.00 0.00 93 1016.7
20260906110003 70 88 0.0 0.9 0.00 0.00 0.00 93 1016.7
20260906105503 70 88 0.0 0.9 0.00 0.00 0.00 93 1016.6
20260906105003 70 88 0.0 0.9 0.00 0.00 0.00 93 1016.5
20260906104713 70 88 0.0 0.9 0.00 0.00 0.00 93 1016.4
20260906104003 70 88 0.0 0.9 0.00 0.00 0.00 92 1016.3
20260906103503 70 0 0.0 0.0 0.00 0.00 0.00 92 1016.4
20260906103214 70 0 0.0 0.0 0.00 0.00 0.00 92 1016.3
20260906102503 70 88 0.0 0.9 0.00 0.00 0.00 92 1016.3
20260906102214 70 88 0.0 0.9 0.00 0.00 0.00 92 1016.3
20260906101713 71 88 0.0 0.9 0.00 0.00 0.00 92 1016.2
20260906101003 71 89 0.0 0.9 0.00 0.00 0.00 92 1016.3
20260906100503 71 89 0.0 0.9 0.00 0.00 0.00 92 1016.4
20260906100003 71 0 0.0 0.0 0.00 0.00 0.00 92 1016.4
20260906095503 71 0 0.0 0.0 0.00 0.00 0.00 92 1016.3
20260906095003 71 0 0.0 0.0 0.00 0.00 0.00 92 1016.2
20260906094503 71 0 0.0 0.0 0.00 0.00 0.00 92 1016.2
20260906094214 71 0 0.0 0.0 0.00 0.00 0.00 92 1016.2
20260906093503 71 0 0.0 0.0 0.00 0.00 0.00 91 1016.2
20260906093214 71 0 0.0 0.0 0.00 0.00 0.00 91 1016.2
20260906092503 71 0 0.0 0.0 0.00 0.00 0.00 91 1016.1
20260906092003 71 0 0.0 0.0 0.00 0.00 0.00 91 1016.1
20260906091503 71 0 0.0 0.0 0.00 0.00 0.00 91 1016.1
20260906091214 71 0 0.0 0.0 0.00 0.00 0.00 91 1016.1
20260906090713 71 0 0.0 0.0 0.00 0.00 0.00 91 1016.1
20260906090003 72 89 0.0 0.9 0.00 0.00 0.00 90 1016.0
20260906085712 72 89 0.0 0.9 0.00 0.00 0.00 90 1016.0
20260906085003 72 89 0.0 1.7 0.00 0.00 0.00 90 1016.2
20260906084503 72 89 0.0 1.7 0.00 0.00 0.00 90 1016.2
20260906084003 72 89 0.0 0.9 0.00 0.00 0.00 90 1016.2
20260906083503 72 89 0.0 0.9 0.00 0.00 0.00 90 1016.1
20260906083003 72 89 0.0 0.9 0.00 0.00 0.00 90 1016.2
20260906082503 72 89 0.0 0.9 0.00 0.00 0.00 90 1016.2
20260906082213 72 89 0.0 0.9 0.00 0.00 0.00 90 1016.2
20260906081503 72 89 0.0 0.9 0.00 0.00 0.00 90 1016.3
20260906081003 72 0 0.0 0.0 0.00 0.00 0.00 90 1016.3
20260906080713 72 0 0.0 0.0 0.00 0.00 0.00 90 1016.3
20260906080003 72 89 0.0 0.9 0.00 0.00 0.00 90 1016.2
20260906075503 72 89 0.0 1.7 0.00 0.00 0.00 90 1016.3
20260906075003 72 90 0.0 1.7 0.00 0.00 0.00 90 1016.4
20260906074503 72 90 0.0 1.7 0.00 0.00 0.00 90 1016.3
20260906074003 72 90 0.0 1.7 0.00 0.00 0.00 90 1016.3
20260906073503 72 90 0.0 1.7 0.00 0.00 0.00 90 1016.4
20260906073003 73 90 0.0 1.7 0.00 0.00 0.00 90 1016.4
20260906072503 73 90 0.0 0.9 0.00 0.00 0.00 90 1016.4
20260906072003 73 90 0.0 2.6 0.00 0.00 0.00 90 1016.4
20260906071714 73 90 0.0 2.6 0.00 0.00 0.00 90 1016.4
20260906071213 73 89 0.0 2.6 0.00 0.00 0.00 90 1016.3
20260906070503 73 83 0.0 2.6 0.00 0.00 0.00 90 1016.3
20260906070003 73 84 0.0 2.6 0.00 0.00 0.00 90 1016.4
20260906065503 73 87 0.0 2.6 0.00 0.00 0.00 90 1016.4
20260906065003 73 105 0.0 5.2 0.00 0.00 0.00 90 1016.5
20260906064503 73 102 0.9 5.2 0.00 0.00 0.00 90 1016.4
20260906064003 73 79 0.0 3.5 0.00 0.00 0.00 90 1016.5
20260906063503 74 61 0.0 1.7 0.00 0.00 0.00 90 1016.6
20260906063003 74 65 0.0 1.7 0.00 0.00 0.00 90 1016.6
20260906062714 74 71 0.0 2.6 0.00 0.00 0.00 90 1016.6
20260906062003 74 64 0.0 3.5 0.00 0.00 0.00 90 1016.5
20260906061503 74 92 0.0 1.7 0.00 0.00 0.00 90 1016.5
20260906061003 74 98 0.0 1.7 0.00 0.00 0.00 90 1016.6
20260906060503 74 98 0.0 5.2 0.00 0.00 0.00 90 1016.6
20260906060003 74 98 0.0 5.2 0.00 0.00 0.00 90 1016.6
20260906055503 74 99 0.0 4.3 0.00 0.00 0.00 90 1016.6
20260906055003 74 99 0.0 4.3 0.00 0.00 0.00 90 1016.4
20260906054503 74 102 0.0 0.9 0.00 0.00 0.00 90 1016.4
20260906054003 74 0 0.0 0.0 0.00 0.00 0.00 90 1016.3
20260906053503 75 100 0.0 1.7 0.00 0.00 0.00 90 1016.3
20260906053212 75 100 0.0 1.7 0.00 0.00 0.00 90 1016.2
20260906052503 75 82 0.0 0.9 0.00 0.00 0.00 89 1016.2
20260906052003 75 0 0.0 0.9 0.00 0.00 0.00 90 1016.2
20260906051503 75 82 0.0 0.9 0.00 0.00 0.00 90 1016.1
20260906051003 75 82 0.0 0.9 0.00 0.00 0.00 89 1016.1
20260906050503 75 82 0.0 0.9 0.00 0.00 0.00 89 1016.1
20260906050016 75 82 0.0 0.9 0.00 0.00 0.00 89 1016.0
20260906045503 75 82 0.0 0.9 0.00 0.00 0.00 89 1015.9
20260906045214 75 82 0.0 0.9 0.00 0.00 0.00 89 1015.8
20260906044503 75 0 0.0 0.0 0.00 0.00 0.00 89 1015.8
20260906044214 75 0 0.0 0.0 0.00 0.00 0.00 89 1015.8
20260906043503 75 82 0.0 0.9 0.00 0.00 0.00 89 1015.7
20260906043003 75 82 0.0 0.9 0.00 0.00 0.00 89 1015.6
20260906042503 75 82 0.0 0.9 0.00 0.00 0.00 89 1015.6
20260906042003 75 82 0.0 0.9 0.00 0.00 0.00 89 1015.6
20260906041503 75 82 0.0 0.9 0.00 0.00 0.00 88 1015.5
20260906041003 76 82 0.0 0.9 0.00 0.00 0.00 89 1015.3
20260906040503 76 82 0.0 0.9 0.00 0.00 0.00 88 1015.3
20260906040214 76 82 0.0 0.9 0.00 0.00 0.00 88 1015.2
20260906035503 76 82 0.0 0.9 0.00 0.00 0.00 88 1015.1
20260906035003 76 82 0.0 0.9 0.00 0.00 0.00 88 1015.2
20260906034503 76 82 0.0 1.7 0.00 0.00 0.00 88 1015.2
20260906034003 76 82 0.0 1.7 0.00 0.00 0.00 88 1015.1
20260906033503 76 82 0.0 0.9 0.00 0.00 0.00 87 1015.0
20260906033214 76 82 0.0 0.9 0.00 0.00 0.00 88 1014.9
20260906032503 76 82 0.0 0.9 0.00 0.00 0.00 87 1014.9
20260906032003 76 82 0.0 0.9 0.00 0.00 0.00 87 1015.0
20260906031503 77 83 0.0 0.9 0.00 0.00 0.00 87 1015.1
20260906031213 77 86 0.0 0.9 0.00 0.00 0.00 87 1015.1
20260906030503 77 87 0.0 0.9 0.00 0.00 0.00 86 1015.1
20260906030003 77 87 0.0 1.7 0.00 0.00 0.00 86 1015.0
20260906025503 77 87 0.0 1.7 0.00 0.00 0.00 86 1015.0
20260906025003 77 87 0.0 0.9 0.00 0.00 0.00 86 1015.0
20260906024503 78 88 0.0 1.7 0.00 0.00 0.00 86 1014.9
20260906024213 78 88 0.0 1.7 0.00 0.00 0.00 86 1014.9
20260906023714 78 88 0.0 1.7 0.00 0.00 0.00 86 1014.8
20260906023213 78 89 0.0 1.7 0.00 0.00 0.00 86 1014.7
20260906022714 78 97 0.0 2.6 0.00 0.00 0.00 86 1014.7
20260906022003 78 107 0.0 2.6 0.00 0.00 0.00 86 1014.7
20260906021503 78 99 0.0 4.3 0.00 0.00 0.00 85 1014.6
20260906021003 79 87 0.0 4.3 0.00 0.00 0.00 85 1014.6
20260906020503 79 71 0.0 4.3 0.00 0.00 0.00 85 1014.5
20260906020003 79 69 0.0 5.2 0.00 0.00 0.00 85 1014.5
20260906015503 79 72 0.0 5.2 0.00 0.00 0.00 85 1014.5
20260906015004 80 85 0.0 2.6 0.00 0.00 0.00 85 1014.5
20260906014503 80 86 0.0 1.7 0.00 0.00 0.00 85 1014.4
20260906014003 80 86 0.0 1.7 0.00 0.00 0.00 84 1014.3
20260906013503 80 86 0.0 1.7 0.00 0.00 0.00 84 1014.3
20260906013003 81 86 0.0 0.9 0.00 0.00 0.00 84 1014.2
20260906012503 81 86 0.0 1.7 0.00 0.00 0.00 83 1014.2
20260906012003 81 86 0.0 2.6 0.00 0.00 0.00 83 1014.2
20260906011714 81 86 0.0 2.6 0.00 0.00 0.00 83 1014.1
20260906011003 82 85 0.0 1.7 0.00 0.00 0.00 82 1014.0
20260906010503 82 87 0.0 0.9 0.00 0.00 0.00 82 1013.9
20260906010213 82 87 0.0 0.9 0.00 0.00 0.00 82 1013.9
20260906005503 83 90 0.0 4.3 0.00 0.00 0.00 81 1013.8
20260906005003 83 93 0.0 4.3 0.00 0.00 0.00 81 1013.8
20260906004503 83 105 0.0 1.7 0.00 0.00 0.00 81 1013.9
20260906004003 84 117 0.0 0.9 0.00 0.00 0.00 80 1013.9
20260906003503 84 0 0.0 0.9 0.00 0.00 0.00 80 1013.8
20260906003003 84 0 0.0 0.0 0.00 0.00 0.00 80 1013.7
20260906002713 84 0 0.0 0.0 0.00 0.00 0.00 80 1013.7
20260906002212 84 0 0.0 0.0 0.00 0.00 0.00 80 1013.8
20260906001503 85 0 0.0 0.0 0.00 0.00 0.00 79 1013.7
20260906001212 85 173 0.0 0.9 0.00 0.00 0.00 79 1013.7
20260906000503 86 173 0.0 0.9 0.00 0.00 0.00 79 1013.7
20260906000003 86 0 0.0 0.0 0.00 0.00 0.00 78 1013.6
20260905235503 86 0 0.0 0.0 0.00 0.00 0.00 78 1013.5
20260905235214 86 0 0.0 0.0 0.00 0.00 0.00 78 1013.4
20260905234503 87 218 0.0 0.9 0.00 0.00 0.00 77 1013.4
20260905234003 87 337 0.0 4.3 0.00 0.00 0.00 77 1013.4
20260905233503 87 346 0.0 4.3 0.00 0.00 0.00 76 1013.3
20260905233214 88 89 0.0 0.9 0.00 0.00 0.00 76 1013.2
20260905232503 88 89 0.0 1.7 0.00 0.00 0.00 76 1013.2
20260905232003 88 88 0.0 1.7 0.00 0.00 0.00 75 1013.1
20260905231503 89 88 0.0 1.7 0.00 0.00 0.00 74 1013.2
20260905231003 89 114 0.0 0.9 0.00 0.00 0.00 74 1013.1
20260905230713 89 114 0.0 0.9 0.00 0.00 0.00 74 1013.1
20260905230003 90 0 0.0 0.9 0.00 0.00 0.00 73 1013.0
20260905225713 90 190 0.0 0.9 0.00 0.00 0.00 73 1013.0
20260905225214 89 190 0.0 0.9 0.00 0.00 0.00 73 1013.0
20260905224503 89 0 0.0 0.0 0.00 0.00 0.00 73 1013.0
20260905224003 90 0 0.0 0.0 0.00 0.00 0.00 73 1013.0
20260905223503 90 0 0.0 0.0 0.00 0.00 0.00 73 1013.0
20260905223214 90 0 0.0 0.0 0.00 0.00 0.00 72 1013.0
20260905222503 90 182 0.0 0.9 0.00 0.00 0.00 72 1013.0
20260905222214 90 182 0.0 0.9 0.00 0.00 0.00 72 1012.9
20260905221503 90 0 0.0 0.0 0.00 0.00 0.00 71 1013.0
20260905221003 91 0 0.0 0.0 0.00 0.00 0.00 70 1013.0
20260905220503 91 0 0.0 0.0 0.00 0.00 0.00 69 1012.9
20260905220003 91 0 0.0 0.0 0.00 0.00 0.00 70 1012.9
20260905215503 92 0 0.0 0.0 0.00 0.00 0.00 70 1012.9
20260905215003 92 0 0.0 0.0 0.00 0.00 0.00 71 1012.9
20260905214503 91 0 0.0 0.0 0.00 0.00 0.00 71 1013.0
20260905214003 92 0 0.0 0.0 0.00 0.00 0.00 69 1012.9
20260905213503 92 172 0.0 0.9 0.00 0.00 0.00 69 1013.0
20260905213003 92 172 0.0 0.9 0.00 0.00 0.00 69 1012.9
20260905212503 93 0 0.0 0.0 0.00 0.00 0.00 68 1012.9
20260905212003 93 0 0.0 0.0 0.00 0.00 0.00 67 1013.0
20260905211503 94 0 0.0 0.0 0.00 0.00 0.00 66 1013.1
20260905211003 94 0 0.0 0.0 0.00 0.00 0.00 66 1013.1
20260905210503 93 0 0.0 0.0 0.00 0.00 0.00 69 1013.1
20260905210003 93 0 0.0 0.0 0.00 0.00 0.00 68 1013.2
20260905205503 93 0 0.0 0.0 0.00 0.00 0.00 70 1013.3
20260905205003 92 0 0.0 0.0 0.00 0.00 0.00 71 1013.3
20260905204503 92 0 0.0 0.0 0.00 0.00 0.00 73 1013.3
20260905204003 91 0 0.0 0.0 0.00 0.00 0.00 73 1013.2
20260905203503 91 0 0.0 0.0 0.00 0.00 0.00 73 1013.2
20260905203003 92 0 0.0 0.0 0.00 0.00 0.00 70 1013.3
20260905202503 92 0 0.0 0.0 0.00 0.00 0.00 70 1013.3
20260905202003 92 0 0.0 0.0 0.00 0.00 0.00 70 1013.3
20260905201503 93 0 0.0 0.0 0.00 0.00 0.00 69 1013.4
20260905201003 92 0 0.0 0.0 0.00 0.00 0.00 71 1013.5
20260905200503 92 0 0.0 0.0 0.00 0.00 0.00 71 1013.4
20260905200004 93 0 0.0 0.0 0.00 0.00 0.00 69 1013.6
20260905195503 93 0 0.0 0.0 0.00 0.00 0.00 71 1013.6
20260905195213 93 0 0.0 0.0 0.00 0.00 0.00 69 1013.6
20260905194503 93 0 0.0 0.0 0.00 0.00 0.00 70 1013.6
20260905194003 93 0 0.0 0.0 0.00 0.00 0.00 70 1013.7
20260905193503 93 0 0.0 0.0 0.00 0.00 0.00 71 1013.8
20260905193003 93 0 0.0 0.0 0.00 0.00 0.00 71 1013.8
20260905192503 93 0 0.0 0.0 0.00 0.00 0.00 71 1013.8
20260905192003 93 0 0.0 0.0 0.00 0.00 0.00 69 1013.8
20260905191503 93 0 0.0 0.0 0.00 0.00 0.00 69 1013.8
20260905191003 93 0 0.0 0.0 0.00 0.00 0.00 70 1013.8
20260905190503 93 0 0.0 0.0 0.00 0.00 0.00 70 1013.8
20260905190212 93 0 0.0 0.0 0.00 0.00 0.00 71 1013.7
20260905185503 93 0 0.0 0.0 0.00 0.00 0.00 68 1013.8
20260905185003 94 0 0.0 0.0 0.00 0.00 0.00 68 1013.8
20260905184503 94 0 0.0 0.0 0.00 0.00 0.00 67 1013.8
20260905184003 94 100 0.0 6.1 0.00 0.00 0.00 66 1013.8
20260905183503 94 100 0.0 6.1 0.00 0.00 0.00 67 1013.8
20260905183003 94 0 0.0 0.0 0.00 0.00 0.00 67 1013.8
20260905182503 94 90 0.0 0.9 0.00 0.00 0.00 65 1013.9
20260905182003 94 90 0.0 0.9 0.00 0.00 0.00 67 1014.0
20260905181503 94 90 0.0 0.9 0.00 0.00 0.00 67 1014.0
20260905181214 94 90 0.0 0.9 0.00 0.00 0.00 68 1014.0
20260905180713 94 90 0.0 0.9 0.00 0.00 0.00 67 1014.0
20260905180003 94 0 0.0 0.0 0.00 0.00 0.00 67 1014.1
20260905175503 94 0 0.0 0.0 0.00 0.00 0.00 67 1014.1
20260905175003 94 0 0.0 0.0 0.00 0.00 0.00 70 1014.2
20260905174503 93 83 0.0 4.3 0.00 0.00 0.00 69 1014.2
20260905174003 93 83 0.0 4.3 0.00 0.00 0.00 69 1014.3
20260905173503 93 84 0.0 1.7 0.00 0.00 0.00 72 1014.3
20260905173004 93 84 0.0 1.7 0.00 0.00 0.00 69 1014.4
20260905172503 93 0 0.0 0.0 0.00 0.00 0.00 69 1014.4
20260905172003 93 0 0.0 0.0 0.00 0.00 0.00 71 1014.3
20260905171503 92 0 0.0 0.0 0.00 0.00 0.00 72 1014.4
20260905171003 92 85 0.0 0.9 0.00 0.00 0.00 72 1014.5
20260905170713 92 85 0.0 0.9 0.00 0.00 0.00 71 1014.5
20260905170003 92 0 0.0 0.0 0.00 0.00 0.00 71 1014.6
20260905165503 92 0 0.0 0.0 0.00 0.00 0.00 70 1014.5
20260905165003 92 0 0.0 0.0 0.00 0.00 0.00 69 1014.6
20260905164503 92 85 0.0 1.7 0.00 0.00 0.00 71 1014.6
20260905164003 92 85 0.0 1.7 0.00 0.00 0.00 70 1014.6
20260905163503 92 0 0.0 0.0 0.00 0.00 0.00 69 1014.5
20260905163213 93 0 0.0 0.0 0.00 0.00 0.00 70 1014.5
20260905162714 92 0 0.0 0.0 0.00 0.00 0.00 71 1014.5
20260905162003 92 0 0.0 0.0 0.00 0.00 0.00 71 1014.5
20260905161503 92 92 0.0 0.9 0.00 0.00 0.00 72 1014.4
20260905161213 91 92 0.0 0.9 0.00 0.00 0.00 70 1014.5
20260905160503 91 105 0.0 1.7 0.00 0.00 0.00 72 1014.6
20260905160003 91 105 0.0 1.7 0.00 0.00 0.00 73 1014.6
20260905155503 91 0 0.0 0.0 0.00 0.00 0.00 71 1014.5
20260905155003 92 0 0.0 0.0 0.00 0.00 0.00 72 1014.6
20260905154503 92 0 0.0 0.0 0.00 0.00 0.00 71 1014.5
20260905154003 92 0 0.0 0.0 0.00 0.00 0.00 73 1014.5
20260905153503 92 0 0.0 0.0 0.00 0.00 0.00 70 1014.6
20260905153003 92 0 0.0 0.0 0.00 0.00 0.00 71 1014.5
20260905152503 92 0 0.0 0.0 0.00 0.00 0.00 70 1014.4
20260905152003 91 0 0.0 0.0 0.00 0.00 0.00 71 1014.3
20260905151503 91 0 0.0 0.0 0.00 0.00 0.00 71 1014.3
20260905151213 91 0 0.0 0.0 0.00 0.00 0.00 71 1014.3
20260905150503 90 0 0.0 0.0 0.00 0.00 0.00 72 1014.1
20260905150213 90 0 0.0 0.0 0.00 0.00 0.00 71 1014.2
20260905145503 90 0 0.0 0.0 0.00 0.00 0.00 72 1014.0